Regional Weather Roundup
Issued by NWS

Home | Current Version | Previous Version | Graphics & Text | Print | Product List | Glossary On
Versions: 1 2 3 4 5 6 7 8 9 10 11 12 13 14 15 16 17 18 19 20 21 22 23 24 25 26 27 28 29 30 31 32 33 34 35 36 37 38 39 40 41 42 43 44 45 46 47 48 49 50
000
ASUS43 KIND 201859
RWRIN

WEATHER ROUNDUP FOR INDIANA
NATIONAL WEATHER SERVICE INDIANAPOLIS IN
200 PM EST SAT DEC 20 2014

NOTE: "FAIR" INDICATES FEW OR NO CLOUDS BELOW 12,000 FEET WITH NO
SIGNIFICANT WEATHER AND/OR OBSTRUCTIONS TO VISIBILITY.

* - STATION DOES NOT REPORT WEATHER SUCH AS PRECIPITATION OR FOG.

+ - STATION NOT QUALITY CONTROLLED BY THE NATIONAL WEATHER SERVICE.
    USE DATA WITH CAUTION...ESPECIALLY DEWPOINT AND RELATIVE
    HUMIDITY OBSERVATIONS.

INZ001>003-010>013-019-020-202000-
NORTHWEST INDIANA

CITY           SKY/WX    TMP DP  RH WIND       PRES   REMARKS
GARY /AIRPORT/ CLOUDY    36  21  55 SW7       30.27F
KNOX *+        CLOUDY    33  23  66 SW6       30.25F WCI  27
MONTICELLO +   CLOUDY    32  25  74 CALM      30.25F
VALPARAISO     NOT AVBL

$$

LMZ046-743>745-202000-
SOUTHERN LAKE MICHIGAN

STATION/POSITION TIME  TEMP WIND        PRES
                       AIR  DIR/SP/G
                 (UTC) (F)  (DEG/KT/KT) (MB)

$$

INZ004-005-014>016-021>024-202000-
NORTH CENTRAL INDIANA

CITY           SKY/WX    TMP DP  RH WIND       PRES   REMARKS
ELKHART        LGT RAIN  30  27  86 CALM      30.26F
GOSHEN         CLOUDY    31  28  89 W3        30.25F FOG
SOUTH BEND     CLOUDY    33  24  69 SW7       30.26F WCI  27
WARSAW +       CLOUDY    32  27  80 W3        30.25F

$$

INZ006>009-017-018-025>027-202000-
NORTHEAST INDIANA

CITY           SKY/WX    TMP DP  RH WIND       PRES   REMARKS
ANGOLA *+      PTSUNNY   30  18  59 W5        30.24S WCI  25
FORT WAYNE     CLOUDY    32  25  75 SW7       30.26F HAZE    WCI  26

$$

INZ028-029-035-036-043>045-051>053-202000-
WEST CENTRAL INDIANA

CITY           SKY/WX    TMP DP  RH WIND       PRES   REMARKS
GREENCASTLE +  CLOUDY    32  21  64 CALM      30.26F
LAFAYETTE      CLOUDY    31  25  78 CALM      30.27F
TERRE HAUTE    CLOUDY    34  24  67 E5        30.27F WCI  30

$$

INZ030>032-037>040-046>048-054>057-064-065-202000-
CENTRAL INDIANA

CITY           SKY/WX    TMP DP  RH WIND       PRES   REMARKS
ANDERSON       CLOUDY    30  21  69 CALM      30.26F
COLUMBUS       CLOUDY    32  27  80 CALM      30.27F
FRANKFORT +    CLOUDY    32  28  83 CALM      30.27F
INDIANAPOLIS   CLOUDY    32  23  69 CALM      30.25F
-EAGLE CREEK   CLOUDY    32  23  69 N3        30.25F
KOKOMO *+      CLOUDY    34  25  69 W3        30.26F
MT COMFORT *+  CLOUDY    32  18  55 CALM      30.25F
SHELBYVILLE    CLOUDY    33  24  69 CALM      30.25F

$$

INZ033-034-041-042-049-050-058-059-202000-
EAST CENTRAL INDIANA

CITY           SKY/WX    TMP DP  RH WIND       PRES   REMARKS
MUNCIE         CLOUDY    31  23  72 CALM      30.25F

$$

INZ060-061-067>069-081>083-085>088-202000-
SOUTHWEST INDIANA

CITY           SKY/WX    TMP DP  RH WIND       PRES   REMARKS
EVANSVILLE     CLOUDY    37  26  64 E3        30.28F
HUNTINGBURG *+ CLOUDY    36  25  64 NW5       30.28F

$$

INZ062-063-066-070>080-084-089>092-202000-
SOUTH CENTRAL AND SOUTHEAST INDIANA

CITY           SKY/WX    TMP DP  RH WIND       PRES   REMARKS
BLOOMINGTON    CLOUDY    33  25  72 CALM      30.25F

$$




USA.gov is the U.S. government's official web portal to all federal, state and local government web resources and services.